Time[GMT],current_u[cm/s](10m),current_v[cm/s](10m),current_u[cm/s](14m),current_v[cm/s](14m),current_u[cm/s](18m),current_v[cm/s](18m),current_u[cm/s](22m),current_v[cm/s](22m),current_u[cm/s](26m),current_v[cm/s](26m),current_u[cm/s](30m),current_v[cm/s](30m),current_u[cm/s](34m),current_v[cm/s](34m),current_u[cm/s](38m),current_v[cm/s](38m),current_u[cm/s](42m),current_v[cm/s](42m),current_u[cm/s](46m),current_v[cm/s](46m),current_u[cm/s](50m),current_v[cm/s](50m),current_u[cm/s](54m),current_v[cm/s](54m)
2012-04-16 00:00,9.32,-7.28,1.73,0.51,-0.04,-1.99,-0.87,-7.34,-8.29,-8.36,-10.25,-5.92,-10.57,-2.68,-9.66,-0.11,-8.38,0.88,-7.97,2.67,-6.25,3.90,-5.10,2.47
2012-04-16 01:00,16.08,-10.09,8.12,-2.83,2.94,-1.85,-1.12,-7.20,-7.27,-6.50,-5.15,-3.07,-3.05,0.46,-2.48,1.36,-2.47,3.45,-0.60,4.20,1.13,1.48,3.09,0.49
2012-04-16 02:00,12.44,-16.89,5.51,-11.72,4.36,-2.79,-1.35,-7.48,-9.06,-7.13,-8.60,-6.58,-4.02,-4.41,-3.26,-1.68,-2.92,0.71,-0.99,2.32,0.46,1.28,1.82,-0.51
2012-04-16 03:00,5.24,-18.99,-1.42,-15.10,1.50,-6.54,3.22,-3.54,-4.36,-5.76,-7.31,-4.22,-3.36,-5.98,-0.47,-3.37,2.32,0.99,5.04,0.22,6.08,-0.83,5.39,-1.34
2012-04-16 04:00,4.04,-11.32,0.47,-5.18,4.69,1.06,1.64,-0.98,-4.56,-0.08,-4.06,1.42,0.14,0.25,4.27,2.50,6.85,5.44,8.96,3.56,9.35,3.67,8.37,2.03
2012-04-16 05:00,1.89,-14.66,3.01,-7.45,4.98,-6.36,-2.04,-4.77,-5.66,-0.61,-3.67,-2.43,1.05,-5.01,4.75,-4.13,7.78,-3.45,9.02,-4.13,7.91,-6.02,6.22,-6.31
2012-04-16 06:00,-2.20,-6.37,1.84,-0.61,0.18,1.51,-2.18,5.30,-4.38,7.16,-4.66,5.62,-1.42,2.71,1.65,2.57,2.65,2.34,3.83,1.85,2.06,-0.65,0.21,-0.36
2012-04-16 07:00,-3.15,0.43,1.05,1.76,-0.85,2.56,-2.17,7.07,-3.78,9.73,-3.95,7.81,-2.54,4.05,0.15,3.06,1.49,3.46,2.01,3.09,2.47,1.87,0.35,1.66
2012-04-16 08:00,-2.73,1.49,4.44,-1.30,1.78,-0.73,0.42,2.83,-0.66,4.39,-2.97,5.17,-4.09,2.24,-3.09,-0.49,-1.37,-0.30,-0.45,-0.96,-0.84,-2.12,-0.92,-1.83
2012-04-16 09:00,-6.44,2.08,-0.85,-2.44,-1.99,-1.73,-1.54,0.28,-2.19,1.44,-4.31,3.33,-8.01,1.72,-7.90,-1.48,-6.48,-2.42,-5.43,-3.15,-5.79,-5.86,-5.73,-6.78
2012-04-16 10:00,-0.05,-2.31,0.09,-6.02,-1.20,-3.37,-1.34,-3.62,-1.13,-1.48,-2.55,1.23,-5.76,0.82,-6.51,-2.32,-5.49,-4.73,-5.76,-5.96,-6.48,-6.69,-5.84,-6.40
2012-04-16 11:00,1.58,-4.33,-1.32,-8.30,-4.92,-4.56,-5.32,-4.26,-4.35,-2.94,-3.54,-2.49,-1.42,-0.83,-4.13,-1.21,-5.20,-2.88,-5.62,-3.94,-6.15,-4.61,-5.28,-4.04
2012-04-16 12:00,3.83,-4.19,1.03,-8.87,-3.46,-5.28,-5.01,-4.59,-5.47,-3.37,-2.43,-2.38,-1.92,-2.33,-2.77,-2.27,-4.94,-4.47,-6.65,-6.11,-8.14,-7.07,-7.24,-5.87
2012-04-16 13:00,0.15,-3.71,-1.06,-8.85,-4.38,-10.66,-3.26,-8.45,-2.74,-8.09,-3.23,-6.05,-2.77,-5.50,-0.94,-6.42,-0.60,-7.57,-2.95,-7.01,-6.54,-8.27,-7.34,-8.40
2012-04-16 14:00,10.99,-9.08,4.78,-16.00,-2.16,-12.93,-1.57,-12.44,0.01,-8.23,2.19,-3.21,2.90,-4.57,5.68,-6.26,4.72,-6.54,1.60,-5.47,-1.46,-5.33,-1.20,-5.14
2012-04-16 15:00,8.17,-5.84,8.90,-11.57,1.18,-10.80,-0.69,-7.60,0.73,-8.54,2.56,-5.92,3.08,-6.60,4.49,-8.58,6.28,-9.00,4.88,-6.70,2.06,-4.92,1.53,-5.59
2012-04-16 16:00,16.57,-7.86,8.46,-10.76,1.57,-5.37,0.30,-4.60,1.31,-4.83,2.32,-4.74,3.26,-6.86,4.20,-6.90,4.07,-4.65,4.12,-2.34,2.03,0.91,1.74,0.82
2012-04-16 17:00,12.88,-14.47,4.64,-11.25,2.95,-5.81,0.77,-4.78,-0.54,-5.26,0.72,-7.08,1.81,-8.33,2.58,-8.10,3.22,-6.04,3.66,-2.89,2.58,-0.29,2.60,-0.70
2012-04-16 18:00,8.82,-9.51,1.77,-4.27,2.40,1.43,0.10,1.80,-3.02,1.41,-3.58,0.83,-2.86,1.25,0.22,1.73,1.73,3.01,1.23,5.78,1.18,7.01,2.11,4.89
2012-04-16 19:00,10.25,-11.17,4.07,-4.65,6.55,0.04,4.74,-1.95,1.87,-2.47,1.59,-2.24,0.71,-2.08,3.14,-1.48,7.18,-1.76,7.88,0.12,7.69,1.83,8.60,0.53
2012-04-16 20:00,2.65,-1.93,-0.10,3.20,-0.43,4.67,-5.58,6.60,-4.90,6.80,-3.75,6.41,-5.81,7.05,-5.05,7.28,-0.41,6.76,1.59,7.76,1.37,9.57,0.99,8.73
2012-04-16 21:00,3.41,-4.53,0.97,-3.68,3.56,-2.92,0.62,-4.61,-4.31,-2.72,-6.00,-2.28,-5.73,-3.55,-7.26,-2.96,-6.07,-2.40,-1.94,-1.92,-0.33,0.42,-0.75,1.14
2012-04-16 22:00,-2.29,-2.86,-5.93,-1.11,-4.23,-3.01,-8.05,-3.81,-11.19,-0.56,-12.22,-0.24,-12.27,0.27,-10.44,0.80,-8.34,-1.40,-5.48,-1.92,-3.47,-0.60,-2.46,0.95
2012-04-16 23:00,7.10,-5.74,4.09,-8.29,2.92,-9.98,-1.91,-9.52,-2.86,-5.53,-4.34,-2.62,-3.57,-1.67,-2.90,-2.20,-0.89,-5.16,1.28,-6.50,4.47,-5.67,4.20,-5.44
2012-04-17 00:00,4.48,-5.36,-1.42,-8.33,-3.42,-11.83,-6.40,-8.75,-6.42,-4.06,-7.40,-0.71,-7.77,1.27,-6.56,-1.08,-6.70,-4.88,-6.54,-5.77,-3.91,-5.52,-2.74,-4.87
2012-04-17 01:00,13.63,-0.29,3.22,-4.58,2.37,-5.97,-1.20,-4.10,-0.86,-0.25,-0.60,1.70,0.54,5.99,-0.14,7.25,-0.35,4.06,0.32,1.03,0.48,-0.59,2.17,-0.30
2012-04-17 02:00,12.48,-11.67,-0.38,-11.16,-3.39,-13.70,-3.61,-15.43,-3.09,-13.30,-1.83,-10.12,-1.17,-9.20,0.83,-8.20,2.30,-6.10,1.77,-7.82,0.02,-9.68,-0.53,-11.72
2012-04-17 03:00,20.88,-11.92,8.57,-8.64,2.48,-11.67,1.97,-11.72,3.50,-8.77,4.33,-7.69,5.19,-7.76,8.77,-5.77,9.03,-4.86,6.66,-6.39,4.71,-8.62,6.93,-9.44
2012-04-17 04:00,15.95,-15.34,4.29,-9.69,-3.03,-9.22,-1.48,-6.69,-0.10,-3.57,0.34,-4.38,1.41,-6.26,3.40,-4.84,5.52,-4.64,4.89,-4.61,1.91,-4.75,0.38,-5.20
2012-04-17 05:00,16.21,-7.34,6.38,-0.43,1.37,0.30,4.58,0.72,5.93,2.15,4.97,0.10,6.61,-0.15,8.44,1.43,10.28,1.55,9.32,1.27,7.53,1.68,4.62,1.66
2012-04-17 06:00,15.71,-7.39,4.82,2.76,1.18,5.24,5.84,4.62,7.17,4.70,6.73,3.01,7.65,2.34,7.83,2.08,7.63,1.71,8.30,1.91,7.42,3.84,5.76,4.18
2012-04-17 07:00,14.17,-5.34,8.38,1.62,5.10,4.30,6.65,3.61,6.42,3.34,5.67,2.70,6.31,1.95,4.84,0.90,5.34,0.62,5.92,2.56,5.92,5.06,4.47,5.37
2012-04-17 08:00,8.40,-4.84,2.37,2.57,1.82,6.26,-0.05,3.74,1.93,1.61,2.08,3.21,0.78,2.31,-0.26,0.55,0.25,-0.14,0.96,2.05,1.18,4.51,0.12,6.70
2012-04-17 09:00,2.90,-2.07,-0.39,0.62,-1.45,1.76,-0.36,-0.21,-0.65,0.44,-2.39,2.11,-3.40,0.57,-4.49,0.04,-4.78,-0.77,-3.25,1.13,-3.19,3.44,-3.90,4.07
2012-04-17 10:00,1.49,5.96,-1.73,8.04,-2.07,7.42,-1.86,5.29,-1.92,5.48,-4.55,7.00,-7.49,4.58,-7.23,4.76,-5.27,6.27,-3.68,8.30,-5.67,10.84,-5.82,11.01
2012-04-17 11:00,2.02,-0.14,-0.76,0.82,-2.67,-1.20,-2.64,-2.02,-1.91,-0.25,-4.69,0.71,-6.74,-0.10,-6.37,-1.03,-5.37,-0.53,-4.56,1.69,-4.99,4.58,-4.65,5.93
2012-04-17 12:00,-3.98,-9.19,-7.77,-9.05,-5.85,-9.21,-8.37,-10.57,-6.49,-9.50,-5.92,-8.61,-6.74,-9.37,-8.35,-8.49,-7.38,-7.89,-6.39,-7.70,-5.63,-6.75,-5.41,-5.02
2012-04-17 13:00,6.09,-8.01,3.11,-8.15,4.13,-8.07,0.81,-7.06,-1.97,-5.37,-3.06,-4.85,-4.80,-3.18,-4.62,-3.44,-2.78,-4.04,-0.93,-4.65,-1.30,-4.44,-1.38,-3.84
2012-04-17 14:00,5.20,-14.21,2.47,-10.95,1.18,-13.30,0.02,-13.96,-2.27,-10.77,-3.56,-10.63,-4.16,-10.70,-3.67,-8.47,-2.71,-7.46,-1.81,-9.49,-1.55,-10.04,-1.66,-9.65
2012-04-17 15:00,9.10,-16.51,8.87,-15.74,6.87,-16.02,5.51,-14.22,3.43,-15.67,2.92,-12.48,2.95,-10.81,2.59,-9.56,3.25,-9.68,4.41,-11.52,4.07,-12.15,2.60,-11.01
2012-04-17 16:00,-1.47,-10.64,5.59,-13.78,6.68,-11.80,4.70,-9.67,1.93,-10.17,2.30,-10.37,3.39,-8.39,2.61,-7.15,3.27,-7.27,3.50,-6.27,2.71,-7.13,2.58,-7.06
2012-04-17 17:00,2.84,-7.92,2.69,-9.21,1.79,-4.69,0.46,-0.49,-0.62,-2.16,0.81,-2.78,0.83,-1.42,0.73,-0.72,1.02,-1.37,1.06,0.31,1.12,0.43,1.97,1.10
2012-04-17 18:00,8.33,-9.96,6.95,-13.08,8.34,-12.15,8.63,-8.83,6.62,-6.61,6.66,-7.12,6.28,-7.23,6.51,-6.22,6.63,-7.34,7.82,-6.78,8.38,-6.93,8.08,-7.33
2012-04-17 19:00,2.85,1.67,1.52,-4.14,4.06,-3.92,4.42,-1.21,2.28,0.04,1.34,-1.38,1.73,0.51,2.06,1.85,1.68,-0.03,2.99,-1.31,4.10,-1.20,2.99,-1.31
2012-04-17 20:00,2.80,0.40,0.05,-1.96,3.33,-3.19,4.02,-0.91,2.07,0.40,0.93,0.38,2.02,1.63,1.71,1.65,2.57,-0.60,3.18,0.51,2.20,1.37,2.56,3.35
2012-04-17 21:00,-1.23,1.72,-2.81,-1.45,0.95,-3.26,3.57,-1.87,1.66,-0.35,0.17,-0.58,0.84,1.39,0.34,2.39,0.14,1.29,0.60,0.07,-0.02,1.14,-0.71,2.08
2012-04-17 22:00,-3.50,2.00,-5.30,-1.13,-3.34,-4.62,-1.24,-4.32,-3.89,-4.16,-3.72,-4.73,-3.12,-3.93,-3.06,-2.35,-5.08,-2.22,-5.37,-4.07,-3.29,-3.36,-2.03,-1.95
2012-04-17 23:00,2.95,0.24,-3.07,-3.40,-2.34,-5.89,-1.13,-5.75,-4.24,-6.87,-4.90,-5.70,-4.99,-5.73,-4.82,-7.04,-3.30,-6.90,-2.11,-5.62,-3.73,-4.01,-3.49,-4.46
2012-04-18 00:00,2.97,2.33,-2.77,-1.23,-8.49,-2.69,-6.28,-6.32,-4.98,-7.19,-4.53,-5.18,-3.53,-4.68,-4.51,-5.59,-4.08,-5.99,-3.84,-4.67,-4.74,-5.87,-4.07,-7.44
2012-04-18 01:00,1.16,-5.39,-5.14,-3.80,-6.92,-7.34,-8.62,-9.71,-8.33,-8.58,-4.01,-7.32,-3.42,-8.61,-4.06,-11.40,-2.68,-11.51,-2.51,-11.36,-4.33,-10.85,-5.30,-10.72
2012-04-18 02:00,5.56,-6.92,-0.45,-7.74,-3.90,-9.47,-5.96,-9.56,-5.27,-9.04,-2.96,-7.33,-0.78,-4.81,-0.10,-5.34,-0.07,-6.17,-1.80,-9.17,-1.79,-9.90,-1.88,-12.11
2012-04-18 03:00,2.02,-13.68,-1.03,-10.72,-4.82,-11.31,-3.64,-11.79,-1.86,-11.80,0.05,-10.51,1.23,-8.50,-0.37,-9.07,-1.78,-9.59,-2.87,-8.34,-3.75,-9.64,-3.52,-10.41
2012-04-18 04:00,6.55,-13.50,7.62,-6.83,1.70,-8.67,-0.07,-10.44,2.37,-9.52,1.84,-10.19,0.20,-9.94,-0.24,-9.86,0.15,-8.71,0.55,-8.28,-0.06,-8.35,0.42,-7.48
2012-04-18 05:00,8.62,-15.92,10.72,-12.80,6.37,-10.74,3.93,-9.89,3.95,-10.31,3.21,-9.90,2.54,-10.09,1.58,-10.37,1.62,-9.11,0.73,-8.54,0.15,-8.71,2.25,-7.68
2012-04-18 06:00,1.73,-13.77,3.81,-9.10,1.62,-6.61,3.42,-4.94,3.46,-4.72,1.92,-4.44,1.29,-4.42,1.28,-4.73,0.61,-3.16,-1.20,-1.60,-0.55,-2.04,1.01,-1.68
2012-04-18 07:00,-0.33,-13.12,3.26,-9.36,1.41,-5.53,0.31,-5.33,2.33,-5.47,1.53,-5.59,1.36,-6.06,1.34,-4.92,0.26,-4.09,-0.41,-3.24,-0.57,-3.40,-0.64,-2.79
2012-04-18 08:00,-7.24,-4.10,0.55,-4.01,2.07,0.40,4.31,1.99,5.28,0.82,5.64,-0.75,3.35,-0.06,2.62,0.66,1.36,1.75,-0.06,2.69,0.63,2.48,2.19,2.83
2012-04-18 09:00,-5.04,0.50,1.25,-2.14,4.34,0.85,6.99,-0.04,7.49,-1.04,6.89,-1.84,5.50,-1.00,5.23,0.28,4.77,2.23,4.41,3.79,3.58,5.21,2.54,4.49
2012-04-18 10:00,-10.10,-0.04,-2.47,-1.87,1.46,0.01,4.05,-1.73,3.04,-4.32,3.18,-5.53,2.40,-3.57,1.66,-1.39,1.83,-0.92,2.72,-0.04,1.70,1.33,0.59,4.03
2012-04-18 11:00,-19.84,6.91,-8.68,0.48,-0.75,-5.64,1.66,-8.16,0.36,-9.06,-0.27,-9.04,-1.03,-6.45,0.16,-5.89,0.92,-4.94,1.38,-3.66,1.80,-1.87,1.64,0.79
2012-04-18 12:00,-11.51,6.95,-4.72,-5.96,0.68,-12.30,-0.84,-13.16,-1.60,-14.12,-2.69,-13.60,-3.72,-12.23,-2.14,-9.79,-0.94,-8.19,-1.78,-7.81,-2.47,-8.64,-3.14,-7.79
2012-04-18 13:00,-10.53,-0.68,-2.43,-11.65,-0.70,-18.64,-2.43,-20.92,-2.53,-20.22,-4.08,-18.49,-4.30,-17.72,-2.68,-15.79,-0.92,-13.60,-1.23,-13.59,-3.84,-13.94,-5.45,-13.78
2012-04-18 14:00,-4.86,1.29,-0.34,-10.94,0.59,-19.10,-2.47,-20.41,-1.78,-20.63,-1.91,-19.11,-1.28,-18.08,-1.23,-16.82,1.79,-13.96,3.07,-11.92,1.98,-12.13,-0.87,-10.57
2012-04-18 15:00,2.80,0.40,3.62,-14.88,2.80,-21.69,0.88,-20.48,-0.60,-20.39,0.75,-20.72,1.61,-19.74,1.09,-18.33,3.29,-15.19,3.35,-12.88,2.58,-12.37,1.11,-13.43
2012-04-18 16:00,9.77,-4.54,7.28,-17.04,5.65,-20.02,4.56,-18.46,3.67,-15.39,4.65,-13.75,5.71,-14.90,7.69,-15.25,8.41,-13.79,9.56,-11.69,10.95,-11.07,9.70,-9.67
2012-04-18 17:00,7.44,-7.62,2.10,-18.24,-1.56,-16.40,-1.23,-14.32,0.90,-11.62,2.29,-9.96,2.21,-11.13,2.69,-10.99,3.40,-9.84,3.83,-8.47,4.23,-8.04,4.32,-7.28
2012-04-18 18:00,6.11,-13.42,-2.05,-17.58,-3.16,-15.20,-1.76,-15.00,0.52,-12.46,2.04,-10.55,1.16,-10.39,1.21,-11.63,1.01,-10.23,0.94,-10.35,2.54,-9.05,2.69,-8.49
2012-04-18 19:00,12.10,-7.19,4.07,-12.15,-2.16,-11.15,-1.54,-8.27,2.36,-7.02,4.84,-5.15,5.55,-4.73,4.48,-4.63,3.33,-5.69,4.27,-4.27,3.56,-2.92,2.58,-2.06
2012-04-18 20:00,4.16,-8.16,-4.96,-6.56,-5.95,-3.51,-1.62,-1.93,2.67,-1.30,4.41,-0.48,3.08,-0.56,2.02,-1.91,2.79,-0.64,2.80,1.13,1.05,2.81,1.32,4.76
2012-04-18 21:00,-1.69,-8.83,-10.71,-4.70,-8.04,-3.50,-4.81,-2.45,-1.60,-3.07,0.71,-3.13,-0.09,-2.53,-0.41,-1.79,-0.43,-2.10,0.14,-0.48,-0.80,2.37,-1.23,4.22
2012-04-18 22:00,-6.31,-8.72,-11.60,-3.08,-9.01,-2.32,-5.99,-4.46,-3.45,-6.74,-2.56,-5.85,-2.90,-4.70,-2.90,-4.70,-2.84,-4.89,-2.25,-2.64,-2.70,-0.37,-4.50,3.27
2012-04-18 23:00,-2.34,-3.39,-7.21,2.58,-5.74,3.95,-4.41,0.48,-3.71,-2.65,-1.66,-2.88,-2.35,-1.94,-2.58,-0.44,-2.76,-0.18,-1.80,0.10,-1.43,0.62,-0.36,1.25
2012-04-19 00:00,-1.48,-2.41,-6.20,5.90,-2.73,3.99,-0.45,-0.24,-1.73,-1.55,-2.04,-1.22,-1.93,-0.88,-2.02,0.14,-1.50,1.23,-2.14,1.25,-1.02,0.64,-0.03,1.87
2012-04-19 01:00,-1.25,-13.18,-3.78,-1.31,-1.69,-0.29,-2.91,-3.25,-3.49,-6.23,-1.87,-7.84,-0.98,-5.91,-1.67,-5.70,-3.16,-4.15,-3.18,-3.01,-4.66,-3.66,-4.57,-4.67
2012-04-19 02:00,-6.28,-14.86,-7.07,-4.67,-3.06,-3.08,-1.46,-4.28,-4.88,-5.39,-5.42,-7.84,-3.69,-8.06,-2.24,-6.59,-1.88,-5.34,-2.69,-2.56,-4.13,-2.25,-3.61,-1.89
2012-04-19 03:00,-2.65,-10.88,-0.75,-3.86,0.48,-6.63,2.97,-7.67,1.10,-8.74,-2.63,-9.52,-1.87,-10.34,0.07,-10.92,1.16,-10.39,2.84,-8.65,2.38,-7.43,2.77,-8.77
2012-04-19 04:00,-9.63,-9.48,-3.07,-0.90,5.66,-4.39,7.01,-7.95,5.41,-10.30,2.61,-9.65,4.30,-10.41,4.26,-10.63,4.59,-11.06,4.12,-10.15,4.57,-10.64,5.45,-9.03
2012-04-19 05:00,-1.62,-1.93,6.57,-2.87,8.55,-5.00,7.50,-9.27,5.99,-9.08,6.68,-9.30,7.37,-10.24,5.47,-9.44,5.33,-8.96,5.24,-7.95,5.96,-8.26,7.01,-7.22
2012-04-19 06:00,1.12,0.43,7.87,-4.47,8.14,-6.47,5.67,-8.34,3.63,-7.07,2.91,-6.75,2.09,-7.51,1.86,-6.02,1.40,-4.80,1.92,-5.48,1.70,-6.17,4.08,-6.10
2012-04-19 07:00,2.35,2.67,7.11,-6.15,7.74,-7.95,3.03,-7.87,1.61,-6.93,2.32,-6.51,1.48,-6.13,2.21,-4.35,3.48,-3.36,6.13,-5.29,9.00,-4.77,8.59,-3.01
2012-04-19 08:00,2.87,6.57,2.95,-3.31,3.67,-5.07,2.60,-4.97,1.38,-3.66,0.18,-2.76,-0.65,-2.06,-1.02,-1.13,-0.72,1.04,-0.18,0.99,1.66,0.38,0.89,2.66
2012-04-19 09:00,7.00,-0.77,3.35,-9.33,1.34,-9.92,-0.07,-7.94,-0.21,-5.69,-1.17,-4.20,-1.60,-3.80,-0.65,-3.11,-0.29,-1.86,0.97,-1.90,1.83,-2.69,0.50,-0.27
2012-04-19 10:00,6.81,1.99,2.70,-6.40,-0.96,-4.55,-1.13,-3.25,-2.06,-0.81,-2.58,1.33,-3.49,2.31,-2.82,2.51,-1.31,3.06,-0.19,1.72,0.70,0.83,0.11,2.84
2012-04-19 11:00,4.96,-5.22,-3.18,-8.01,-5.00,-6.78,-5.38,-4.39,-4.65,-0.84,-4.53,-0.91,-3.48,0.13,-3.49,0.54,-2.37,1.70,-0.55,1.51,0.52,-0.37,0.46,0.55
2012-04-19 12:00,4.43,0.88,-0.81,-6.49,-5.07,-6.17,-4.46,-5.78,-3.76,-2.45,-3.50,-0.50,-3.70,-0.87,-4.13,-2.25,-3.69,-0.56,-2.31,0.78,-0.16,-0.15,0.04,0.22
2012-04-19 13:00,-0.65,4.71,-3.16,-6.65,-8.03,-8.18,-7.49,-6.46,-6.88,-4.62,-6.34,-4.67,-5.98,-4.14,-6.42,-1.56,-5.47,0.17,-5.29,0.64,-5.81,-1.49,-5.39,-3.66
2012-04-19 14:00,2.74,-7.22,-7.58,-13.26,-13.16,-10.21,-10.53,-7.46,-7.71,-7.47,-6.16,-6.38,-4.88,-4.34,-3.37,-3.80,-3.63,-3.98,-3.21,-4.69,-4.74,-6.60,-5.65,-8.11
2012-04-19 15:00,5.77,-10.82,-1.85,-13.25,-8.07,-11.95,-7.30,-8.18,-3.82,-8.31,-1.20,-7.64,-0.39,-7.20,0.23,-6.50,0.94,-7.12,1.91,-6.53,0.31,-7.83,-1.91,-8.06
2012-04-19 16:00,5.81,-15.60,-4.45,-13.28,-6.78,-9.59,-5.65,-5.61,-2.42,-6.33,-0.68,-6.24,0.57,-8.38,2.29,-8.91,3.57,-7.92,2.55,-8.01,0.33,-8.97,-1.29,-8.40
2012-04-19 17:00,2.68,-21.62,-1.68,-16.33,-2.24,-9.09,0.88,-8.70,4.23,-10.54,4.76,-11.63,4.00,-12.27,3.77,-12.55,3.61,-13.43,3.97,-13.22,2.95,-12.58,2.36,-10.56
2012-04-19 18:00,1.55,-11.01,-0.13,-3.48,1.53,-0.59,1.99,-2.54,3.73,-3.49,5.86,-3.29,4.29,-3.64,4.12,-4.11,3.38,-4.43,2.66,-5.16,2.52,-4.68,3.28,-4.46
2012-04-19 19:00,3.43,-17.44,3.81,-11.60,6.64,-7.75,8.26,-9.36,9.01,-10.49,5.62,-11.38,4.34,-11.65,4.34,-11.65,5.20,-11.71,4.26,-11.36,4.19,-10.76,4.62,-11.15
2012-04-19 20:00,-0.47,-15.14,1.93,-11.94,5.31,-8.55,5.77,-6.54,5.63,-7.84,3.03,-7.87,1.19,-7.26,0.94,-7.85,0.77,-8.32,0.29,-8.46,0.20,-7.44,0.36,-6.56
2012-04-19 21:00,-0.74,-9.59,4.72,-7.58,7.21,-6.85,9.83,-5.46,7.80,-6.37,7.20,-6.44,5.65,-4.70,4.62,-3.34,3.95,-2.81,2.16,-2.39,1.89,-1.84,1.77,-1.77
2012-04-19 22:00,-8.39,-0.16,-3.08,0.56,-0.52,0.37,-1.18,0.49,-2.78,-0.81,-3.64,0.71,-3.93,3.12,-3.90,4.07,-5.54,5.05,-6.96,6.72,-7.87,6.97,-7.52,7.18
2012-04-19 23:00,-10.52,3.90,-4.52,1.91,-1.60,1.20,-2.02,-0.59,-4.09,-2.03,-4.63,-2.71,-3.71,-0.15,-2.67,1.30,-2.96,1.22,-3.79,2.64,-5.17,3.80,-4.19,3.99
2012-04-20 00:00,-8.20,1.67,-3.53,-1.45,-2.94,-2.42,-4.88,-3.62,-6.23,-5.78,-5.37,-7.30,-4.96,-4.78,-3.93,-3.65,-4.48,-2.14,-6.84,-0.85,-6.69,0.44,-5.43,1.12
2012-04-20 01:00,0.27,-1.28,0.23,-7.54,-0.72,-8.23,-3.71,-8.69,-4.35,-11.48,-5.22,-11.01,-4.93,-9.15,-3.84,-9.67,-3.86,-9.25,-5.27,-8.00,-5.56,-7.36,-5.21,-7.46
2012-04-20 02:00,0.38,-0.93,-2.59,-8.26,-4.07,-10.67,-4.95,-10.51,-8.30,-11.18,-9.07,-8.17,-8.85,-6.44,-8.94,-6.47,-7.46,-6.56,-8.18,-7.29,-7.66,-5.89,-6.11,-5.12
2012-04-20 03:00,3.34,-7.15,-3.40,-11.52,-5.40,-12.52,-6.02,-12.91,-7.54,-12.00,-7.80,-12.18,-8.44,-9.97,-7.98,-8.69,-7.87,-7.30,-6.47,-6.37,-6.57,-5.67,-6.50,-5.55
2012-04-20 04:00,11.48,-10.40,4.41,-11.52,3.31,-9.55,2.01,-11.50,1.20,-11.94,0.61,-12.43,0.35,-11.88,1.04,-11.05,0.93,-10.67,1.50,-9.77,3.69,-8.71,3.28,-8.00
2012-04-20 05:00,5.19,-14.53,-2.79,-11.13,-2.12,-10.21,-2.69,-9.33,-4.28,-9.59,-5.33,-11.35,-5.84,-12.44,-5.26,-11.96,-3.97,-10.64,-1.84,-9.39,-1.27,-8.50,-1.92,-9.11
2012-04-20 06:00,6.49,-12.58,-0.55,-8.81,2.23,-7.99,2.22,-7.58,1.35,-7.11,1.08,-7.60,0.23,-8.27,0.88,-8.70,4.00,-7.27,6.03,-4.59,7.18,-3.53,4.76,-5.59
2012-04-20 07:00,3.29,-13.73,1.53,-7.37,5.97,-7.22,4.94,-5.12,3.40,-3.80,3.44,-3.58,3.69,-2.99,3.71,-2.35,5.62,-2.11,7.11,-3.65,6.81,-3.32,5.67,-3.34
2012-04-20 08:00,1.66,-11.39,-0.70,-5.10,2.19,-4.99,1.51,-2.68,0.60,-0.97,2.68,-0.99,3.87,-1.47,4.17,-1.07,4.94,-0.85,3.58,-0.83,0.22,-0.77,-1.19,1.94
2012-04-20 09:00,-0.49,-4.73,-0.60,-5.07,-0.92,-4.33,-0.52,-2.13,-0.24,-0.59,1.42,1.56,2.54,0.22,3.18,0.51,3.25,0.64,3.06,1.31,0.30,2.17,-1.69,4.71
2012-04-20 10:00,0.51,-4.96,-1.17,-6.70,-0.01,-5.32,-0.62,-3.93,0.45,-3.31,2.83,-2.19,3.42,-2.44,4.04,-2.78,4.82,-2.24,4.31,-2.28,2.64,-1.21,0.48,1.91
2012-04-20 11:00,1.74,-3.45,-0.15,-2.34,-0.51,-1.82,0.30,-0.33,1.80,0.63,3.87,1.03,5.02,0.64,5.34,-0.10,5.80,0.13,5.15,0.57,4.03,1.91,1.08,5.94
2012-04-20 12:00,-1.80,-0.63,-2.03,2.32,-2.84,1.15,-0.78,1.96,0.49,2.96,3.22,3.23,3.98,2.41,3.81,2.99,3.23,1.78,2.89,1.89,1.55,5.04,-0.83,8.20
2012-04-20 13:00,-6.50,-3.78,-0.70,-0.10,-2.20,-0.33,-1.37,-0.30,1.11,0.12,3.59,-0.51,4.06,-0.69,3.31,-0.28,1.89,-1.11,1.53,-0.59,1.06,1.35,-1.86,3.52
2012-04-20 14:00,-15.37,-0.53,-4.85,-6.94,-2.99,-7.23,-3.22,-7.51,-1.83,-8.35,1.31,-7.33,3.93,-7.39,3.97,-8.22,2.05,-7.73,0.41,-7.80,0.04,-6.55,-0.78,-5.54
2012-04-20 15:00,-6.05,-1.77,-0.68,-11.56,-1.68,-12.06,-1.70,-13.42,-1.28,-14.86,0.51,-15.27,2.26,-14.86,-0.39,-16.47,-2.93,-16.69,-2.41,-15.29,-1.30,-13.72,-3.51,-14.36
2012-04-20 16:00,5.39,-20.20,5.40,-24.88,3.11,-25.97,4.35,-25.92,6.15,-26.02,7.71,-25.67,9.61,-25.01,10.30,-24.18,9.65,-23.75,8.84,-23.46,7.01,-21.50,3.15,-20.75
2012-04-20 17:00,2.98,-15.90,3.38,-15.47,3.97,-14.99,3.84,-16.69,3.69,-17.26,3.80,-18.69,2.75,-18.68,2.21,-18.94,1.44,-17.40,-1.01,-14.36,-3.73,-11.82,-5.07,-10.44
2012-04-20 18:00,3.74,-2.45,2.92,-17.48,4.82,-16.82,5.16,-16.93,6.05,-16.78,6.52,-16.95,4.52,-15.45,1.21,-15.17,-1.24,-15.36,-0.66,-12.70,-1.00,-9.04,-2.20,-7.10
2012-04-20 19:00,13.99,-0.81,8.06,-16.50,12.39,-14.92,11.98,-13.90,11.01,-14.49,11.91,-14.02,10.68,-12.30,6.86,-10.29,4.48,-8.90,3.19,-8.76,3.45,-6.81,3.58,-4.06
2012-04-20 20:00,13.42,-4.93,6.13,-15.61,8.92,-14.48,9.92,-12.21,10.06,-11.96,10.30,-11.36,8.51,-9.49,4.53,-6.59,3.12,-5.34,2.06,-4.92,2.19,-3.21,3.69,-1.21
2012-04-20 21:00,17.19,-2.48,6.35,-13.88,8.28,-15.50,8.78,-13.27,9.14,-12.02,5.44,-9.35,1.92,-7.98,0.90,-6.30,-0.98,-5.91,-2.28,-5.04,0.33,-2.92,1.65,-1.71
2012-04-20 22:00,20.98,-2.62,5.95,-14.30,3.41,-18.80,3.81,-18.37,5.77,-17.59,4.33,-14.46,0.82,-12.06,0.02,-10.41,-1.20,-8.37,-1.91,-6.29,0.02,-4.68,1.64,-2.75
2012-04-20 23:00,11.93,4.11,-4.06,-4.63,-6.50,-8.05,-7.45,-8.01,-7.96,-6.29,-8.84,-4.67,-11.33,-2.58,-11.66,-2.16,-11.16,-1.39,-9.64,0.20,-7.17,2.80,-6.75,3.86
2012-04-21 00:00,16.93,-1.61,1.41,-6.26,-5.37,-6.57,-6.55,-6.81,-6.94,-5.47,-9.46,-4.33,-10.54,-4.23,-10.67,-3.43,-9.57,-2.90,-7.36,0.24,-6.48,1.86,-5.68,3.03
2012-04-21 01:00,14.76,-0.58,-0.24,-4.86,-10.23,-4.56,-10.92,-4.34,-12.79,-4.36,-14.36,-3.99,-13.48,-4.15,-11.63,-2.98,-10.37,0.20,-10.61,3.15,-8.99,5.08,-7.96,5.49
2012-04-21 02:00,16.48,-5.39,-1.78,-7.09,-10.95,-2.47,-13.04,-1.73,-12.95,-3.47,-11.27,-2.78,-9.30,0.09,-7.91,2.48,-6.68,3.26,-6.33,2.42,-6.04,1.78,-5.31,1.78
2012-04-21 03:00,23.47,-8.66,8.20,-8.44,-3.02,-1.09,-4.21,-1.65,-3.99,-3.46,-2.61,-2.12,-1.52,0.91,-1.33,-0.08,-1.73,-1.55,-0.23,-2.05,1.98,-1.09,3.19,-0.21
2012-04-21 04:00,21.89,-13.92,7.71,-14.62,-2.42,-6.33,-3.68,-6.29,-5.39,-6.16,-4.23,-4.05,-4.69,-3.56,-5.06,-4.08,-6.15,-4.61,-5.58,-4.44,-4.46,-5.06,-3.04,-5.27
2012-04-21 05:00,19.41,-21.83,6.95,-17.35,0.34,-7.92,-0.41,-8.56,-1.23,-10.05,0.21,-9.63,0.95,-8.58,1.00,-8.77,1.81,-8.33,1.32,-8.78,0.43,-8.94,0.15,-8.71
2012-04-21 06:00,12.56,-16.96,3.37,-9.02,4.49,-0.04,6.05,-0.73,0.97,-1.18,-0.20,-1.10,-0.24,-1.32,1.24,0.05,2.42,1.33,2.37,1.53,1.44,1.15,-0.16,0.89
2012-04-21 07:00,8.79,-21.50,2.67,-9.85,5.34,-3.65,5.38,-4.16,2.50,-4.27,2.08,-5.33,2.08,-5.33,3.67,-4.35,5.39,-2.38,6.66,-2.12,6.27,-1.50,3.88,-1.16
2012-04-21 08:00,-4.41,-22.34,-7.63,-10.25,1.18,-2.26,1.27,-1.50,-2.10,-1.03,-3.02,-1.09,-1.29,-0.58,0.23,0.28,1.63,1.21,1.86,0.75,1.77,0.73,0.22,-0.04
2012-04-21 09:00,-7.39,-14.98,-5.94,-4.97,3.88,-3.66,2.80,-1.37,0.88,-0.16,2.59,0.76,4.61,0.62,4.68,0.74,5.34,0.62,5.17,1.20,3.11,1.85,0.41,3.24
2012-04-21 10:00,-10.36,-6.26,1.31,-1.28,5.67,-3.34,4.23,-0.22,1.52,0.86,2.66,0.88,3.84,1.12,3.67,1.70,3.63,1.48,3.78,1.31,2.80,1.13,0.67,1.97
2012-04-21 11:00,-8.42,4.93,5.18,0.47,6.16,-1.12,7.40,1.43,5.88,4.84,4.91,5.29,5.73,4.28,5.16,5.16,5.64,5.30,5.42,6.06,5.01,5.32,3.62,6.16
2012-04-21 12:00,-19.26,8.85,-5.78,3.73,2.47,-5.95,0.39,-4.89,-0.32,-3.53,-1.36,-0.71,-1.82,-0.53,-1.69,0.44,-1.35,1.06,-1.97,1.40,-2.44,1.58,-2.94,1.85
2012-04-21 13:00,-12.48,14.17,-3.72,3.81,-0.03,-9.18,0.30,-7.10,-1.40,-5.20,-3.23,-4.28,-3.20,-5.10,-3.60,-4.80,-2.01,-3.09,-1.05,-1.76,-1.09,-1.26,-0.55,-0.26
2012-04-21 14:00,-2.52,10.41,-0.97,-4.87,-0.76,-10.95,-1.03,-8.22,-2.38,-6.11,-4.12,-4.43,-4.55,-4.04,-4.17,-4.97,-4.09,-5.26,-3.50,-4.77,-2.71,-3.92,-3.08,-3.71
2012-04-21 15:00,3.73,4.01,-1.00,-9.04,-5.52,-16.41,-1.17,-15.24,-2.49,-12.50,-5.05,-11.58,-5.94,-10.70,-5.91,-10.79,-4.96,-10.83,-4.70,-10.65,-4.18,-11.01,-2.80,-10.72
2012-04-21 16:00,8.29,-1.64,0.63,-12.84,-4.26,-17.50,-1.23,-15.05,-2.77,-14.04,-2.40,-14.25,-1.97,-13.91,-1.57,-13.17,-0.95,-12.78,-0.72,-12.50,-0.95,-12.78,-0.25,-12.68
2012-04-21 17:00,8.66,1.39,7.10,-6.47,-3.27,-13.04,-5.02,-14.18,-2.54,-13.04,-1.78,-12.81,-1.42,-11.88,0.06,-11.24,0.56,-10.46,1.24,-9.95,1.30,-10.14,1.21,-9.86
2012-04-21 18:00,14.68,-4.25,11.76,-10.63,1.64,-14.52,-3.38,-15.89,-1.73,-15.09,-0.32,-14.58,1.02,-14.18,2.75,-13.68,4.24,-12.72,4.91,-11.80,6.08,-10.83,5.99,-10.86
2012-04-21 19:00,15.49,-3.81,11.65,-8.47,5.60,-12.01,-3.90,-13.75,-4.01,-13.36,-2.61,-13.16,-1.01,-12.59,-1.23,-12.55,0.50,-12.04,3.46,-10.76,4.56,-10.23,4.80,-9.64
2012-04-21 20:00,13.67,-10.07,4.27,-11.05,-6.46,-7.83,-5.94,-4.97,-5.06,-5.13,-4.53,-5.18,-2.70,-4.65,-1.08,-4.48,0.01,-3.96,1.93,-2.67,2.04,-3.05,1.90,-2.57
2012-04-21 21:00,11.07,-3.64,-1.82,-3.03,-8.37,2.24,-6.29,4.41,-5.35,4.06,-4.38,3.93,-2.73,3.99,-0.50,5.27,1.61,5.89,2.08,6.44,1.05,6.04,0.77,6.27
2012-04-21 22:00,11.79,-14.68,-1.58,-10.99,-3.38,-4.84,-0.57,-4.12,0.38,-5.20,0.79,-5.19,2.32,-5.78,3.55,-5.73,5.25,-5.13,6.08,-5.10,5.69,-4.48,6.46,-4.99
2012-04-21 23:00,0.84,-8.92,-7.51,-3.55,-6.32,-0.49,-5.03,0.09,-4.61,-0.62,-4.20,-1.33,-3.83,-1.85,-3.98,-2.41,-3.05,-2.04,-2.27,-2.23,-1.18,-2.01,-1.74,-2.59
2012-04-22 00:00,-5.31,-3.95,-13.85,-1.45,-12.62,-0.67,-10.49,-0.46,-10.17,-1.20,-10.44,-1.70,-10.26,-1.96,-9.47,-1.83,-8.37,-1.30,-6.77,-0.73,-6.19,-1.29,-5.97,-2.37
2012-04-22 01:00,-1.56,6.42,-13.84,4.91,-13.92,5.93,-12.21,3.62,-11.30,3.36,-9.95,3.03,-9.89,2.84,-10.15,2.66,-8.71,3.08,-7.81,3.55,-7.08,2.83,-6.49,2.58
2012-04-22 02:00,6.97,1.10,-2.43,-2.38,-6.77,-3.23,-7.04,-3.72,-4.69,-4.29,-3.98,-4.91,-4.45,-4.74,-4.90,-5.70,-4.94,-5.92,-4.64,-5.52,-3.85,-5.71,-3.46,-4.55
2012-04-22 03:00,6.51,-1.95,-5.52,-2.86,-7.59,-3.26,-5.47,-4.10,-5.55,-3.81,-5.60,-3.30,-6.25,-3.91,-6.23,-4.01,-8.22,-3.97,-8.60,-4.08,-9.00,-4.51,-8.17,-3.43
2012-04-22 04:00,14.20,-8.66,2.49,-4.59,-1.11,-9.39,-1.01,-10.09,0.77,-10.82,1.00,-10.54,1.57,-9.65,1.19,-8.72,0.41,-7.80,-0.85,-9.21,-0.85,-8.48,0.04,-6.55
2012-04-22 05:00,8.08,-6.60,-2.23,1.22,-6.85,-2.21,-5.90,-2.98,-4.07,-3.17,-3.71,-4.42,-4.10,-4.85,-4.32,-3.76,-5.15,-2.34,-5.78,-2.32,-6.61,-1.62,-6.03,-0.41